timestamp,surface_pressure_avg,surface_temp_avg,battery_voltage,lat,long
2018-11-20 00:00:00+00:00,276.6114,6.12,12.97,47.84626,-54.09684
2018-11-20 00:10:00+00:00,270.2064,6.1,12.89,47.84626,-54.09684
2018-11-20 00:20:00+00:00,261.6597,6.1,12.97,47.84626,-54.09684
2018-11-20 00:30:00+00:00,255.3547,6.1,12.97,47.84626,-54.09684
2018-11-20 00:40:00+00:00,246.5348,6.1,12.97,47.84626,-54.09684
2018-11-20 00:50:00+00:00,241.8947,6.02,13.05,47.84626,-54.09684
2018-11-20 01:00:00+00:00,236.7697,6.0,12.97,47.84626,-54.09684
2018-11-20 01:10:00+00:00,232.0314,5.9,12.89,47.84626,-54.09684
2018-11-20 01:20:00+00:00,226.6931,5.9,12.97,47.84626,-54.09684
2018-11-20 01:30:00+00:00,226.0065,5.9,12.97,47.84626,-54.09684
2018-11-20 01:40:00+00:00,220.7265,5.9,12.97,47.84626,-54.09684
2018-11-20 01:50:00+00:00,212.9514,5.9,12.97,47.84626,-54.09684
2018-11-20 02:00:00+00:00,210.7014,5.9,12.89,47.84626,-54.09684
2018-11-20 02:10:00+00:00,211.5781,5.93,12.81,47.84626,-54.09684
2018-11-20 02:20:00+00:00,207.2231,6.0,12.89,47.84626,-54.09684
2018-11-20 02:30:00+00:00,203.1831,5.94,12.89,47.84626,-54.09684
2018-11-20 02:40:00+00:00,205.5564,5.92,12.97,47.84626,-54.09684
2018-11-20 02:50:00+00:00,207.0898,5.94,12.97,47.84626,-54.09684
2018-11-20 03:00:00+00:00,207.9965,5.9,12.89,47.84626,-54.09684
2018-11-20 03:10:00+00:00,207.8831,5.9,12.81,47.84626,-54.09684
2018-11-20 03:20:00+00:00,207.3514,5.86,12.89,47.84626,-54.09684
2018-11-20 03:30:00+00:00,207.1498,5.8,12.89,47.84626,-54.09684
2018-11-20 03:40:00+00:00,206.9515,5.8,12.89,47.84626,-54.09684
2018-11-20 03:50:00+00:00,210.1797,5.8,12.89,47.84626,-54.09684
2018-11-20 04:00:00+00:00,216.5348,5.8,12.81,47.84626,-54.09684
2018-11-20 04:10:00+00:00,218.6081,5.8,12.73,47.84626,-54.09684
2018-11-20 04:20:00+00:00,218.3948,5.78,12.81,47.84626,-54.09684
2018-11-20 04:30:00+00:00,221.5414,5.7,12.81,47.84626,-54.09684
2018-11-20 04:40:00+00:00,227.2347,5.7,12.89,47.84626,-54.09684
2018-11-20 04:50:00+00:00,230.8631,5.7,12.89,47.84626,-54.09684
2018-11-20 05:00:00+00:00,233.5364,5.7,12.81,47.84626,-54.09684
2018-11-20 05:10:00+00:00,237.1815,5.69,12.73,47.84626,-54.09684
2018-11-20 05:20:00+00:00,241.4181,5.69,12.81,47.84626,-54.09684
2018-11-20 05:30:00+00:00,246.8614,5.69,12.81,47.84626,-54.09684
2018-11-20 05:40:00+00:00,252.9647,5.69,12.89,47.84626,-54.09684
2018-11-20 05:50:00+00:00,259.0398,5.69,12.89,47.84626,-54.09684
2018-11-20 06:00:00+00:00,262.8264,5.7,12.81,47.84626,-54.09684
2018-11-20 06:10:00+00:00,266.9997,5.7,12.73,47.84626,-54.09684
2018-11-20 06:20:00+00:00,271.5781,5.69,12.81,47.84626,-54.09684
2018-11-20 06:30:00+00:00,280.6364,5.66,12.81,47.84626,-54.09684
2018-11-20 06:40:00+00:00,285.858,5.6,12.81,47.84626,-54.09684
2018-11-20 06:50:00+00:00,287.263,5.6,12.89,47.84626,-54.09684
2018-11-20 07:00:00+00:00,289.5464,5.6,12.81,47.84626,-54.09684
2018-11-20 07:10:00+00:00,297.478,5.57,12.73,47.84626,-54.09684
2018-11-20 07:20:00+00:00,304.278,5.5,12.81,47.84626,-54.09684
2018-11-20 07:30:00+00:00,305.723,5.5,12.81,47.84626,-54.09684
2018-11-20 07:40:00+00:00,308.6613,5.5,12.81,47.84626,-54.09684
2018-11-20 07:50:00+00:00,314.7447,5.49,12.81,47.84626,-54.09684
2018-11-20 08:00:00+00:00,318.0563,5.48,12.81,47.84626,-54.09684
2018-11-20 08:10:00+00:00,322.228,5.49,12.73,47.84626,-54.09684
2018-11-20 08:20:00+00:00,324.383,5.49,12.81,47.84626,-54.09684
2018-11-20 08:30:00+00:00,329.7664,5.48,12.81,47.84626,-54.09684
2018-11-20 08:40:00+00:00,331.5347,5.44,12.81,47.84626,-54.09684
2018-11-20 08:50:00+00:00,331.8246,5.4,12.81,47.84626,-54.09684
2018-11-20 09:00:00+00:00,334.8613,5.35,12.81,47.84626,-54.09684
2018-11-20 09:10:00+00:00,337.4346,5.3,12.73,47.84626,-54.09684
2018-11-20 09:20:00+00:00,335.7596,5.2,12.81,47.84626,-54.09684
2018-11-20 09:30:00+00:00,337.1279,5.2,12.81,47.84626,-54.09684
2018-11-20 09:40:00+00:00,338.6063,5.2,12.81,47.84626,-54.09684
2018-11-20 09:50:00+00:00,337.2247,5.2,12.81,47.84626,-54.09684
2018-11-20 10:00:00+00:00,338.4596,5.25,12.81,47.84626,-54.09684
2018-11-20 10:10:00+00:00,337.4213,5.3,12.73,47.84626,-54.09684
2018-11-20 10:20:00+00:00,339.7747,5.3,12.81,47.84626,-54.09684
2018-11-20 10:30:00+00:00,338.4746,5.29,12.81,47.84626,-54.09684
2018-11-20 10:40:00+00:00,335.5764,5.22,12.81,47.84626,-54.09684
2018-11-20 10:50:00+00:00,331.1964,5.2,12.81,47.84626,-54.09684
2018-11-20 11:00:00+00:00,329.0663,5.2,12.81,47.84626,-54.09684
2018-11-20 11:10:00+00:00,322.9963,5.2,12.73,47.84626,-54.09684
2018-11-20 11:20:00+00:00,314.358,5.2,12.81,47.84626,-54.09684
2018-11-20 11:30:00+00:00,310.943,5.2,12.81,47.84626,-54.09684
2018-11-20 11:40:00+00:00,306.7797,5.2,12.81,47.84626,-54.09684
2018-11-20 11:50:00+00:00,298.5564,5.2,12.81,47.84626,-54.09684
2018-11-20 12:00:00+00:00,293.243,5.2,12.81,47.84626,-54.09684
2018-11-20 12:10:00+00:00,293.1348,5.21,12.73,47.84626,-54.09684
2018-11-20 12:20:00+00:00,288.3147,5.3,12.81,47.84626,-54.09684
2018-11-20 12:30:00+00:00,280.1564,5.26,12.81,47.84626,-54.09684
2018-11-20 12:40:00+00:00,273.513,5.26,12.81,47.84626,-54.09684
2018-11-20 12:50:00+00:00,270.4831,5.3,12.89,47.84626,-54.09684
2018-11-20 13:00:00+00:00,264.3414,5.3,12.81,47.84626,-54.09684
2018-11-20 13:10:00+00:00,256.3481,5.3,12.73,47.84626,-54.09684
2018-11-20 13:20:00+00:00,250.0031,5.24,12.81,47.84626,-54.09684
2018-11-20 13:30:00+00:00,247.0564,5.2,12.81,47.84626,-54.09684
2018-11-20 13:40:00+00:00,239.3348,5.17,12.81,47.84626,-54.09684
2018-11-20 13:50:00+00:00,229.3448,5.1,12.89,47.84626,-54.09684
2018-11-20 14:00:00+00:00,228.0964,5.1,12.81,47.84626,-54.09684
2018-11-20 14:10:00+00:00,226.5665,5.12,12.73,47.84626,-54.09684
2018-11-20 14:20:00+00:00,221.5948,5.1,12.81,47.84626,-54.09684
2018-11-20 14:30:00+00:00,216.7831,5.1,12.81,47.84626,-54.09684
2018-11-20 14:40:00+00:00,214.3797,5.1,12.89,47.84626,-54.09684
2018-11-20 14:50:00+00:00,211.9865,5.1,12.89,47.84626,-54.09684
2018-11-20 15:00:00+00:00,212.0449,5.12,12.81,47.84626,-54.09684
2018-11-20 15:10:00+00:00,209.0131,5.15,12.73,47.84626,-54.09684
2018-11-20 15:20:00+00:00,204.2398,5.15,12.81,47.84626,-54.09684
2018-11-20 15:30:00+00:00,204.9015,5.16,12.81,47.84626,-54.09684
2018-11-20 15:40:00+00:00,205.5431,5.19,12.89,47.84626,-54.09684
2018-11-20 15:50:00+00:00,205.0081,5.1,12.89,47.84626,-54.09684
2018-11-20 16:00:00+00:00,207.2931,5.1,12.81,47.84626,-54.09684
2018-11-20 16:10:00+00:00,212.2281,5.11,12.73,47.84626,-54.09684
2018-11-20 16:20:00+00:00,214.6981,5.2,12.81,47.84626,-54.09684
2018-11-20 16:30:00+00:00,214.0081,5.2,12.81,47.84626,-54.09684
2018-11-20 16:40:00+00:00,215.7281,5.28,12.89,47.84626,-54.09684
2018-11-20 16:50:00+00:00,219.2931,5.3,12.89,47.84626,-54.09684
2018-11-20 17:00:00+00:00,222.7565,5.3,12.81,47.84626,-54.09684
2018-11-20 17:10:00+00:00,226.0015,5.3,12.73,47.84626,-54.09684
2018-11-20 17:20:00+00:00,231.4131,5.3,12.81,47.84626,-54.09684
2018-11-20 17:30:00+00:00,239.0064,5.3,12.81,47.84626,-54.09684
2018-11-20 17:40:00+00:00,245.1764,5.3,12.81,47.84626,-54.09684
2018-11-20 17:50:00+00:00,248.4998,5.3,12.89,47.84626,-54.09684
2018-11-20 18:00:00+00:00,253.1014,5.3,12.81,47.84626,-54.09684
2018-11-20 18:10:00+00:00,258.7914,5.3,12.73,47.84626,-54.09684
2018-11-20 18:20:00+00:00,265.7831,5.31,12.81,47.84626,-54.09684
2018-11-20 18:30:00+00:00,272.2531,5.33,12.81,47.84626,-54.09684
2018-11-20 18:40:00+00:00,277.4913,5.32,12.89,47.84626,-54.09684
2018-11-20 18:50:00+00:00,283.428,5.32,12.89,47.84626,-54.09684
2018-11-20 19:00:00+00:00,288.3914,5.33,12.81,47.84626,-54.09684
2018-11-20 19:10:00+00:00,292.7847,5.31,12.73,47.84626,-54.09684
2018-11-20 19:20:00+00:00,293.548,5.3,12.81,47.84626,-54.09684
2018-11-20 19:30:00+00:00,300.8947,5.3,12.81,47.84626,-54.09684
2018-11-20 19:40:00+00:00,304.2146,5.32,12.81,47.84626,-54.09684
2018-11-20 19:50:00+00:00,308.2512,5.35,12.89,47.84626,-54.09684
2018-11-20 20:00:00+00:00,316.1396,5.38,12.81,47.84626,-54.09684
2018-11-20 20:10:00+00:00,324.308,5.4,12.73,47.84626,-54.09684
2018-11-20 20:20:00+00:00,329.6114,5.4,12.81,47.84626,-54.09684
2018-11-20 20:30:00+00:00,332.9646,5.4,12.81,47.84626,-54.09684
2018-11-20 20:40:00+00:00,337.9396,5.4,12.81,47.84626,-54.09684
2018-11-20 20:50:00+00:00,343.8679,5.4,12.89,47.84626,-54.09684
2018-11-20 21:00:00+00:00,348.7046,5.4,12.81,47.84626,-54.09684
2018-11-20 21:10:00+00:00,352.3781,5.4,12.73,47.84626,-54.09684
2018-11-20 21:20:00+00:00,354.8596,5.3,12.81,47.84626,-54.09684
2018-11-20 21:30:00+00:00,357.2747,5.3,12.81,47.84626,-54.09684
2018-11-20 21:40:00+00:00,352.7396,5.35,12.81,47.84626,-54.09684
2018-11-20 21:50:00+00:00,351.2647,5.4,12.89,47.84626,-54.09684
2018-11-20 22:00:00+00:00,357.0129,5.4,12.81,47.84626,-54.09684
2018-11-20 22:10:00+00:00,353.6062,5.4,12.73,47.84626,-54.09684
2018-11-20 22:20:00+00:00,348.0463,5.4,12.81,47.84626,-54.09684
2018-11-20 22:30:00+00:00,349.9379,5.36,12.81,47.84626,-54.09684
2018-11-20 22:40:00+00:00,343.5229,5.29,12.81,47.84626,-54.09684
2018-11-20 22:50:00+00:00,337.3796,5.2,12.89,47.84626,-54.09684
2018-11-20 23:00:00+00:00,335.2231,4.8,12.81,47.84626,-54.09684
2018-11-20 23:10:00+00:00,332.113,4.7,12.73,47.84626,-54.09684
2018-11-20 23:20:00+00:00,328.6329,4.72,12.81,47.84626,-54.09684
2018-11-20 23:30:00+00:00,324.3746,4.83,12.81,47.84626,-54.09684
2018-11-20 23:40:00+00:00,320.198,4.89,12.81,47.84626,-54.09684
2018-11-20 23:50:00+00:00,316.1213,4.9,12.89,47.84626,-54.09684
